�N����,����,�~����,�C��,���x,�C��,����,���ϕ���,�ő�u�ԕ���,�ő厞����,���˗�,�I�_���x,�n�����x,�ő啗���N��,DTYPE
"19/03/26","00:10",0.0,7.1,75.3,1010.7,294.8,2.2,2.7,316.6,0.00,3.1,9.6,"00:00:08",1
"19/03/26","00:20",0.0,7.2,75.1,1011.2,281.9,2.1,2.8,292.9,0.00,3.1,9.5,"00:18:32",1
"19/03/26","00:30",0.0,6.8,74.3,1010.9,310.2,2.3,3.3,323.7,0.00,2.6,9.7,"00:25:12",1
"19/03/26","00:40",0.0,6.5,77.6,1010.7,285.8,1.8,2.6,322.1,0.00,2.9,9.5,"00:30:24",1
"19/03/26","00:50",0.0,6.7,77.1,1010.4,285.1,2.5,3.3,267.8,0.00,3.0,9.5,"00:44:08",1
"19/03/26","01:00",0.0,6.5,76.5,1010.2,301.4,2.5,2.9,318.8,0.00,2.7,9.3,"00:52:48",1
"19/03/26","01:10",0.0,6.1,79.1,1010.2,315.9,1.5,2.6,323.9,0.00,2.8,9.5,"01:00:16",1
"19/03/26","01:20",0.0,5.6,80.1,1010.2,328.1,2.0,3.5,329.2,0.00,2.5,9.4,"01:14:56",1
"19/03/26","01:30",0.0,5.2,80.9,1009.7,297.5,1.2,2.2,309.3,0.00,2.2,9.4,"01:23:20",1
"19/03/26","01:40",0.0,5.2,83.0,1009.7,302.2,1.7,2.8,320.5,0.00,2.6,9.2,"01:30:02",1
"19/03/26","01:50",0.0,5.3,83.0,1010.0,315.4,2.0,3.1,306.2,0.00,2.7,9.4,"01:40:08",1
"19/03/26","02:00",0.0,4.8,83.3,1009.3,305.6,1.8,2.7,331.1,0.00,2.3,9.1,"01:50:16",1
"19/03/26","02:10",0.0,5.0,84.7,1009.5,281.0,1.8,2.2,293.0,0.00,2.7,9.1,"02:06:26",1
"19/03/26","02:20",0.0,5.0,85.2,1009.5,301.2,1.1,1.6,314.8,0.00,2.8,9.0,"02:16:32",1
"19/03/26","02:30",0.0,4.7,84.9,1009.0,293.8,1.6,2.4,321.3,0.00,2.4,8.9,"02:26:48",1
"19/03/26","02:40",0.0,4.6,86.3,1009.3,310.5,1.3,2.5,320.8,0.00,2.6,8.8,"02:33:20",1
"19/03/26","02:50",0.0,4.3,86.9,1008.8,317.7,1.7,3.1,322.9,0.00,2.4,8.9,"02:44:08",1
"19/03/26","03:00",0.0,4.2,87.8,1009.3,323.0,2.1,2.8,319.1,0.00,2.4,8.6,"02:52:32",1
"19/03/26","03:10",0.0,4.1,87.7,1008.8,306.2,1.6,2.1,318.7,0.00,2.3,8.7,"03:07:12",1
"19/03/26","03:20",0.0,3.9,88.2,1008.8,299.1,1.7,2.4,319.9,0.00,2.2,8.8,"03:11:20",1
"19/03/26","03:30",0.0,3.7,88.6,1008.8,277.9,1.1,1.9,298.2,0.00,2.0,8.7,"03:20:08",1
"19/03/26","03:40",0.0,3.5,88.3,1008.8,316.0,1.8,2.7,330.6,0.00,1.8,8.6,"03:36:48",1
"19/03/26","03:50",0.0,3.5,90.4,1008.8,291.4,1.3,2.1,295.5,0.00,2.1,8.4,"03:48:32",1
"19/03/26","04:00",0.0,3.9,90.1,1008.6,297.9,2.1,2.8,323.1,0.00,2.5,8.3,"03:53:28",1
"19/03/26","04:10",0.0,4.1,90.0,1008.3,292.8,1.8,3.1,316.1,0.00,2.6,8.6,"04:02:40",1
"19/03/26","04:20",0.0,4.3,89.4,1008.6,297.4,2.3,4.3,325.3,0.00,2.8,8.3,"04:18:56",1
"19/03/26","04:30",0.0,4.0,89.2,1008.6,331.8,2.2,3.2,318.0,0.00,2.4,8.5,"04:20:16",1
"19/03/26","04:40",0.0,4.3,89.7,1008.3,303.6,2.5,4.5,324.4,0.00,2.8,8.3,"04:39:28",1
"19/03/26","04:50",0.0,4.3,88.5,1008.6,286.5,2.2,3.9,315.0,0.00,2.6,8.2,"04:41:36",1
"19/03/26","05:00",0.0,4.1,88.3,1008.6,290.0,1.7,2.4,294.4,0.00,2.4,8.1,"04:52:40",1
"19/03/26","05:10",0.0,4.3,88.9,1009.0,307.7,2.5,4.3,309.5,0.00,2.7,8.3,"05:08:40",1
"19/03/26","05:20",0.0,4.9,88.2,1009.0,296.2,3.6,4.5,310.9,0.00,3.2,8.2,"05:12:48",1
"19/03/26","05:30",0.0,5.1,87.5,1009.3,287.0,3.4,4.7,305.7,0.00,3.2,8.1,"05:29:20",1
"19/03/26","05:40",0.0,5.7,86.0,1009.3,311.7,5.1,6.8,315.6,0.00,3.6,8.1,"05:35:44",1
"19/03/26","05:50",0.0,5.9,83.4,1009.5,318.6,4.7,7.7,324.2,0.00,3.3,8.2,"05:42:24",1
"19/03/26","06:00",0.0,5.8,81.6,1009.5,331.4,3.1,5.7,335.2,0.00,2.9,8.3,"05:50:32",1
"19/03/26","06:10",0.0,5.6,81.8,1009.5,333.1,2.3,4.8,313.6,0.00,2.8,8.1,"06:00:02",1
"19/03/26","06:20",0.0,5.4,81.9,1009.0,326.7,3.1,4.4,320.3,0.00,2.6,8.2,"06:16:16",1
"19/03/26","06:30",0.0,5.3,82.1,1008.8,325.7,2.8,3.9,333.4,0.00,2.5,8.1,"06:20:16",1
"19/03/26","06:40",0.0,5.3,82.3,1008.8,324.7,3.0,4.8,330.0,0.00,2.6,7.8,"06:31:36",1
"19/03/26","06:50",0.0,5.5,82.8,1008.6,314.8,2.6,3.9,305.7,0.00,2.9,8.1,"06:44:32",1
"19/03/26","07:00",0.0,5.8,81.8,1008.3,318.7,3.5,5.1,325.8,0.00,3.0,8.1,"06:53:12",1
"19/03/26","07:10",0.0,6.0,81.3,1008.3,297.5,2.5,4.7,323.0,0.00,3.1,8.2,"07:00:32",1
"19/03/26","07:20",0.0,6.3,81.0,1008.3,302.2,2.8,4.0,332.4,0.02,3.3,8.2,"07:16:08",1
"19/03/26","07:30",0.0,6.7,79.6,1008.3,319.7,4.0,7.1,328.5,0.02,3.5,8.2,"07:29:20",1
"19/03/26","07:40",0.0,6.9,78.2,1008.3,328.4,3.9,5.8,326.3,0.03,3.4,8.2,"07:33:44",1
"19/03/26","07:50",0.0,7.0,77.1,1008.3,324.6,4.2,5.9,334.7,0.05,3.3,8.2,"07:43:28",1
"19/03/26","08:00",0.0,7.3,76.7,1008.6,328.1,4.9,6.6,330.9,0.07,3.5,8.2,"07:55:20",1
"19/03/26","08:10",0.0,8.6,73.6,1008.8,318.3,3.4,5.7,326.9,0.13,4.2,8.3,"08:01:28",1
"19/03/26","08:20",0.0,9.7,70.7,1009.0,312.6,1.7,3.2,324.3,0.17,4.7,8.5,"08:15:20",1
"19/03/26","08:30",0.0,9.7,68.7,1009.0,285.7,1.8,3.5,299.8,0.20,4.3,8.6,"08:25:52",1
"19/03/26","08:40",0.0,10.1,68.9,1009.5,240.0,1.3,2.2,236.1,0.22,4.7,8.6,"08:35:12",1
"19/03/26","08:50",0.0,10.6,68.0,1009.3,255.0,0.8,2.0,224.9,0.26,5.0,9.0,"08:40:56",1
"19/03/26","09:00",0.0,9.9,67.5,1009.7,257.2,0.8,1.6,250.7,0.13,4.2,9.1,"08:58:08",1
"19/03/26","09:10",0.0,10.2,66.6,1009.5,300.1,1.2,1.9,325.8,0.15,4.3,9.2,"09:05:04",1
"19/03/26","09:20",0.0,11.1,64.2,1009.0,283.8,1.0,2.2,319.2,0.25,4.6,9.2,"09:17:12",1
"19/03/26","09:30",0.0,11.1,62.3,1008.8,206.3,0.7,1.9,357.3,0.30,4.2,9.2,"09:25:04",1
"19/03/26","09:40",0.0,11.5,61.1,1008.8,8.6,0.7,2.0,125.5,0.33,4.3,9.6,"09:39:12",1
"19/03/26","09:50",0.0,12.1,61.9,1008.3,142.9,0.6,1.8,159.2,0.39,5.1,9.7,"09:40:48",1
"19/03/26","10:00",0.0,12.9,58.8,1008.3,214.6,0.8,2.2,208.1,0.42,5.1,9.9,"09:52:00",1
"19/03/26","10:10",0.0,13.4,57.9,1008.3,226.0,1.3,2.9,232.1,0.44,5.3,10.3,"10:04:40",1
"19/03/26","10:20",0.0,14.0,57.1,1007.6,171.9,1.0,1.9,190.1,0.46,5.7,10.2,"10:12:32",1
"19/03/26","10:30",0.0,14.2,55.6,1007.6,166.8,0.8,2.0,105.0,0.47,5.5,10.5,"10:27:28",1
"19/03/26","10:40",0.0,15.5,55.0,1007.1,355.4,1.2,3.5,321.8,0.50,6.5,10.8,"10:30:02",1
"19/03/26","10:50",0.0,15.3,54.4,1007.4,326.7,3.5,6.5,350.4,0.51,6.2,11.1,"10:42:16",1
"19/03/26","11:00",0.0,14.9,55.1,1006.9,291.6,2.2,5.2,323.3,0.41,6.0,11.0,"10:50:32",1
"19/03/26","11:10",0.0,15.1,53.9,1006.9,292.5,2.3,4.8,334.1,0.48,5.9,11.5,"11:08:24",1
"19/03/26","11:20",0.0,15.8,54.9,1006.7,284.2,2.3,3.9,315.9,0.55,6.8,11.5,"11:11:12",1
"19/03/26","11:30",0.0,16.0,52.8,1006.7,285.0,3.0,5.6,337.7,0.55,6.4,11.7,"11:29:28",1
"19/03/26","11:40",0.0,15.7,51.1,1006.7,337.4,3.0,6.6,348.3,0.38,5.7,11.8,"11:38:48",1
"19/03/26","11:50",0.0,15.8,51.8,1006.7,329.4,3.0,7.9,333.6,0.39,6.0,11.9,"11:45:36",1
"19/03/26","12:00",0.0,15.5,48.6,1006.7,329.6,4.2,7.5,326.3,0.38,4.8,12.2,"11:58:00",1
"19/03/26","12:10",0.0,16.5,47.6,1006.0,336.2,3.5,7.7,345.4,0.59,5.4,12.2,"12:07:12",1
"19/03/26","12:20",0.0,16.8,48.5,1006.0,322.0,3.0,6.5,305.2,0.51,5.9,12.4,"12:19:12",1
"19/03/26","12:30",0.0,16.6,46.8,1006.2,316.9,2.7,5.4,342.1,0.50,5.2,12.5,"12:24:16",1
"19/03/26","12:40",0.0,16.2,49.6,1005.7,346.6,3.5,9.8,335.9,0.33,5.7,12.9,"12:32:48",1
"19/03/26","12:50",0.0,16.9,47.8,1006.0,329.9,2.7,5.9,338.5,0.59,5.8,12.8,"12:45:28",1
"19/03/26","13:00",0.0,17.0,44.7,1006.0,328.1,4.1,7.7,336.1,0.54,4.9,13.0,"12:58:08",1
"19/03/26","13:10",0.0,17.9,42.4,1006.0,333.1,3.7,8.6,340.1,0.60,5.0,13.2,"13:05:52",1
"19/03/26","13:20",0.0,17.2,43.0,1006.0,326.1,3.4,7.0,321.8,0.46,4.6,13.3,"13:18:56",1
"19/03/26","13:30",0.0,17.5,43.9,1005.7,335.1,3.2,5.8,335.5,0.43,5.1,13.4,"13:20:56",1
"19/03/26","13:40",0.0,17.3,44.6,1005.7,327.9,3.6,7.7,338.1,0.37,5.2,13.7,"13:37:28",1
"19/03/26","13:50",0.0,17.6,43.6,1005.5,301.0,3.0,6.2,336.4,0.50,5.1,13.7,"13:43:52",1
"19/03/26","14:00",0.0,18.0,42.4,1005.2,288.2,3.5,8.6,335.3,0.53,5.1,14.1,"13:51:12",1
"19/03/26","14:10",0.0,17.5,42.5,1005.2,315.9,3.1,7.3,341.0,0.37,4.7,13.9,"14:01:20",1
"19/03/26","14:20",0.0,17.4,41.9,1005.2,299.7,3.7,9.0,319.2,0.39,4.4,14.0,"14:16:48",1
"19/03/26","14:30",0.0,17.7,40.6,1005.5,301.6,3.5,6.2,281.2,0.39,4.2,14.0,"14:20:32",1
"19/03/26","14:40",0.0,16.5,45.0,1005.2,329.9,4.0,10.0,344.2,0.17,4.6,13.9,"14:37:52",1
"19/03/26","14:50",0.0,17.4,43.6,1005.2,315.1,3.6,6.6,331.7,0.35,4.9,14.1,"14:43:04",1
"19/03/26","15:00",0.0,17.6,41.9,1005.2,301.7,3.0,6.7,347.3,0.39,4.6,14.2,"14:59:36",1
"19/03/26","15:10",0.0,16.7,45.6,1005.7,338.0,3.2,6.2,308.6,0.23,4.9,14.2,"15:01:20",1
"19/03/26","15:20",0.0,17.0,45.7,1005.5,352.5,3.1,6.2,354.3,0.25,5.3,14.1,"15:10:16",1
"19/03/26","15:30",0.0,17.6,45.6,1005.5,350.9,3.0,6.5,340.2,0.33,5.8,14.2,"15:22:40",1
"19/03/26","15:40",0.0,17.2,46.2,1005.2,350.5,3.4,6.7,332.1,0.29,5.6,14.2,"15:33:04",1
"19/03/26","15:50",0.0,17.5,46.6,1005.5,341.8,2.8,7.3,342.2,0.28,6.0,14.2,"15:41:28",1
"19/03/26","16:00",0.0,16.4,47.4,1005.5,341.9,3.4,7.2,340.4,0.14,5.2,13.9,"15:56:00",1
"19/03/26","16:10",0.0,16.9,45.6,1005.7,343.8,3.7,7.9,321.4,0.23,5.1,14.1,"16:05:04",1
"19/03/26","16:20",0.0,16.7,46.8,1005.5,333.6,3.4,6.7,343.7,0.20,5.3,13.9,"16:10:08",1
"19/03/26","16:30",0.0,16.4,47.7,1005.7,349.4,3.2,6.6,350.6,0.18,5.3,14.1,"16:27:04",1
"19/03/26","16:40",0.0,16.0,48.8,1005.5,350.2,3.7,7.1,351.5,0.15,5.3,14.0,"16:31:20",1
"19/03/26","16:50",0.0,16.2,48.5,1005.7,346.9,3.4,6.4,349.5,0.12,5.4,14.1,"16:46:56",1
"19/03/26","17:00",0.0,16.2,47.5,1006.0,346.0,3.2,8.6,330.0,0.10,5.1,14.0,"16:54:40",1
"19/03/26","17:10",0.0,15.7,47.6,1006.2,338.2,4.0,8.9,344.7,0.05,4.7,13.9,"17:06:08",1
"19/03/26","17:20",0.0,15.5,49.2,1006.4,335.2,4.6,9.0,329.8,0.05,4.9,13.7,"17:11:52",1
"19/03/26","17:30",0.0,15.2,50.2,1006.7,338.1,3.9,7.3,341.0,0.03,5.0,13.6,"17:29:52",1
"19/03/26","17:40",0.0,15.1,50.4,1006.9,332.3,4.2,8.0,336.3,0.04,4.9,13.6,"17:31:12",1
"19/03/26","17:50",0.0,14.9,50.3,1006.9,326.3,3.7,6.4,333.4,0.02,4.7,13.5,"17:45:44",1
"19/03/26","18:00",0.0,14.6,50.8,1007.4,339.7,4.9,8.8,317.5,0.01,4.6,13.2,"17:51:36",1
"19/03/26","18:10",0.0,14.3,51.4,1007.4,338.5,5.1,9.3,333.5,0.00,4.5,13.2,"18:01:52",1
"19/03/26","18:20",0.0,14.1,52.0,1007.6,333.2,6.0,10.4,339.6,0.00,4.4,13.1,"18:17:22",1
"19/03/26","18:30",0.0,13.7,54.1,1007.6,332.9,4.4,8.3,339.9,0.00,4.6,13.2,"18:21:20",1
"19/03/26","18:40",0.0,13.5,55.3,1007.6,324.2,5.5,10.9,334.1,0.00,4.8,13.0,"18:34:32",1
"19/03/26","18:50",0.0,13.1,56.7,1008.1,334.7,4.5,7.5,341.1,0.00,4.7,12.8,"18:45:44",1
"19/03/26","19:00",0.0,12.6,59.7,1008.6,331.4,5.9,10.0,312.4,0.00,5.0,12.9,"18:55:00",1
"19/03/26","19:10",0.0,12.0,62.5,1008.6,334.4,5.0,10.1,316.6,0.00,5.1,12.8,"19:03:06",1
"19/03/26","19:20",0.0,11.3,66.2,1008.6,337.1,4.7,11.9,345.3,0.00,5.3,12.4,"19:15:54",1
"19/03/26","19:30",0.0,11.4,67.8,1008.8,334.5,4.9,7.5,333.5,0.00,5.7,12.3,"19:26:04",1
"19/03/26","19:40",0.0,11.3,68.3,1008.8,334.0,4.5,9.4,325.2,0.00,5.7,12.5,"19:32:22",1
"19/03/26","19:50",0.0,11.3,68.0,1008.8,327.3,3.2,5.8,334.5,0.00,5.7,12.2,"19:45:40",1
"19/03/26","20:00",0.0,11.4,68.7,1009.0,317.5,3.0,7.0,338.6,0.00,5.9,12.2,"19:58:50",1
"19/03/26","20:10",0.0,11.7,66.3,1009.3,311.4,4.0,9.3,331.2,0.00,5.7,12.0,"20:00:48",1
"19/03/26","20:20",0.0,11.7,66.1,1010.0,318.7,4.1,11.9,348.5,0.00,5.6,12.0,"20:18:24",1
"19/03/26","20:30",0.0,11.8,66.8,1009.7,328.7,6.4,12.0,320.3,0.00,5.9,11.9,"20:22:08",1
"19/03/26","20:40",0.0,11.6,68.2,1010.2,318.1,3.7,7.1,327.4,0.00,6.0,11.7,"20:37:36",1
"19/03/26","20:50",0.0,11.2,70.7,1010.0,331.9,4.4,7.9,331.0,0.00,6.1,11.8,"20:47:46",1
"19/03/26","21:00",0.2,11.0,72.4,1010.7,333.5,4.0,7.3,335.7,0.00,6.3,11.6,"20:53:06",1
"19/03/26","21:10",0.0,10.4,74.7,1010.9,326.9,3.6,6.6,335.2,0.00,6.1,11.5,"21:00:24",1
"19/03/26","21:20",0.0,10.4,76.4,1010.7,330.1,3.9,7.5,320.4,0.00,6.5,11.5,"21:12:58",1
"19/03/26","21:30",0.0,10.2,77.9,1010.9,318.4,2.3,4.0,336.8,0.00,6.6,11.3,"21:21:12",1
"19/03/26","21:40",0.0,10.1,78.8,1011.2,329.0,2.5,4.3,332.7,0.00,6.6,11.5,"21:30:56",1
"19/03/26","21:50",0.0,10.1,78.9,1010.7,302.9,2.6,5.2,344.0,0.00,6.6,11.2,"21:44:22",1
"19/03/26","22:00",0.0,10.0,79.7,1010.7,306.4,3.0,4.3,339.7,0.00,6.7,11.5,"21:52:38",1
"19/03/26","22:10",0.0,9.9,79.7,1010.9,313.9,3.1,5.7,334.0,0.00,6.6,11.2,"22:00:08",1
"19/03/26","22:20",0.0,9.7,80.3,1011.4,320.3,2.2,2.8,315.0,0.00,6.5,11.2,"22:11:58",1
"19/03/26","22:30",0.0,9.5,80.6,1011.2,329.1,1.7,3.4,337.6,0.00,6.4,11.1,"22:24:30",1
"19/03/26","22:40",0.0,9.3,81.7,1011.6,351.5,0.6,1.0,328.6,0.00,6.4,10.9,"22:36:12",1
"19/03/26","22:50",0.0,8.4,82.5,1011.4,329.1,0.8,2.4,308.0,0.00,5.6,11.0,"22:45:08",1
"19/03/26","23:00",0.0,7.9,85.2,1011.9,283.6,1.5,2.2,324.8,0.00,5.6,10.9,"22:53:20",1
"19/03/26","23:10",0.0,7.9,86.6,1011.9,316.6,1.1,2.2,337.0,0.00,5.8,10.9,"23:06:38",1
"19/03/26","23:20",0.0,8.0,86.8,1012.1,325.8,1.3,2.6,347.9,0.00,6.0,10.8,"23:13:24",1
"19/03/26","23:30",0.0,8.0,87.6,1012.3,273.7,1.8,3.6,334.4,0.00,6.1,10.6,"23:29:54",1
"19/03/26","23:40",0.0,7.6,87.7,1012.3,333.9,1.7,3.4,316.1,0.00,5.7,10.7,"23:35:04",1
"19/03/26","23:50",0.0,8.4,87.9,1012.3,307.9,2.8,4.9,306.6,0.00,6.6,10.6,"23:42:26",1
"19/03/26","24:00",0.0,9.0,85.9,1012.1,311.3,2.7,6.5,342.1,0.00,6.8,10.6,"23:59:28",1
